This is the latest recevied weather packets stored in our database for station/object OK1FET-5. If no packets are shown the sender has not sent any weather packets the latest 10 day(s).
| Time | Temp. | Humidity | Pressure | Rain* | Wind** | Luminosity | Snow |
|---|---|---|---|---|---|---|---|
| 1776942139 | 23.33° C | 25% | 1022.4 hPa | - | - | - | - |
| 1776941844 | 22.78° C | 23% | 1022.6 hPa | - | - | - | - |
| 1776941549 | 22.22° C | 24% | 1022.5 hPa | - | - | - | - |
| 1776941253 | 21.67° C | 24% | 1022.6 hPa | - | - | - | - |
| 1776940663 | 20.56° C | 24% | 1022.8 hPa | - | - | - | - |
| 1776940368 | 20.56° C | 24% | 1022.9 hPa | - | - | - | - |
| 1776940072 | 21.11° C | 24% | 1023 hPa | - | - | - | - |
| 1776939777 | 21.11° C | 25% | 1023 hPa | - | - | - | - |
| 1776939482 | 21.67° C | 23% | 1023 hPa | - | - | - | - |
| 1776939187 | 21.11° C | 26% | 1023.2 hPa | - | - | - | - |
| 1776938892 | 21.11° C | 26% | 1023.4 hPa | - | - | - | - |
| 1776938597 | 19.44° C | 27% | 1023.3 hPa | - | - | - | - |
| 1776938302 | 17.78° C | 28% | 1023.4 hPa | - | - | - | - |
| 1776937712 | 15.56° C | 28% | 1023.7 hPa | - | - | - | - |
| 1776937418 | 16.67° C | 29% | 1023.8 hPa | - | - | - | - |
| 1776937123 | 15° C | 30% | 1023.8 hPa | - | - | - | - |
| 1776936828 | 15° C | 30% | 1023.9 hPa | - | - | - | - |
| 1776936534 | 15° C | 31% | 1023.8 hPa | - | - | - | - |
| 1776936239 | 15° C | 30% | 1023.9 hPa | - | - | - | - |
| 1776935649 | 16.67° C | 29% | 1023.9 hPa | - | - | - | - |
| 1776935354 | 18.33° C | 28% | 1023.8 hPa | - | - | - | - |
| 1776935059 | 18.89° C | 26% | 1023.7 hPa | - | - | - | - |
| 1776934764 | 18.33° C | 26% | 1023.6 hPa | - | - | - | - |
| 1776934470 | 17.78° C | 27% | 1023.8 hPa | - | - | - | - |
| 1776934175 | 17.78° C | 28% | 1023.9 hPa | - | - | - | - |
* Rain since midnight (hover to see other rain measurements)
** Current wind speed in m/s (hover to see current wind gust speed)